SCP
0 0 0 0 0 0 0 0 0 0 0 0 0 0 0 0 0 0 0 0 0 0 0 0 0 0 0 0 0 0 0 0 0 0 0 1 1 1 0 1 1 1 1
0 0 0 0 0 0 0 0 0 0 0 0 0 0 0 0 0 0 0 0 0 0 0 0 0 0 0 0 0 0 0 0 0 0 0 0 1 1 1 0 0 1 0
0 0 0 0 0 0 0 0 0 0 0 0 0 0 0 0 0 0 0 0 0 0 0 0 0 0 0 0 0 0 0 0 0 0 0 0 0 0 1 1 0 0 0
0 0 0 0 0 0 0 0 0 0 0 -0 0 0 0 0 0 0 0 0 0 0 0 0 0 0 0 0 0 0 0 0 0 0 0 0 0 0 0 0 0 0 0
0 0 0 0 0 0 0 0 0 0 0 0 0 0 0 0 0 0 0 0 0 0 0 0 0 0 0 0 0 0 0 0 0 0 0 0 0 0 0 0 0 0 0
0 0 0 0 0 0 0 0 0 0 -0 -0 0 0 0 0 0 0 0 0 0 0 0 0 0 0 0 0 0 0 0 0 0 0 0 0 0 0 0 0 0 0 0
0 0 0 0 0 0 0 0 0 0 0 0 -0 -0 0 0 -0 0 0 0 0 0 0 0 0 0 0 0 0 0 0 0 0 0 0 0 0 0 0 0 0 0 0
0 0 0 0 0 0 0 0 0 0 0 0 -0 -0 -0 0 0 0 0 0 0 0 0 0 0 0 0 0 0 0 0 0 0 0 0 0 0 0 0 0 0 0 0
0 0 0 0 0 0 0 0 0 0 0 0 0 0 -0 0 -0 0 0 0 0 0 0 0 0 0 0 0 0 0 0 0 0 0 0 0 0 0 0 0 0 0 0
0 0 0 0 0 0 0 0 0 0 0 0 0 0 0 0 -0 -0 0 0 0 0 0 0 0 0 0 0 0 0 0 0 0 0 0 0 0 0 0 0 0 0 0
0 0 0 0 0 0 0 0 0 0 0 0 0 0 0 0 0 0 0 0 0 0 0 0 0 0 0 0 0 0 -0 -0 -0 0 0 0 0 0 0 0 0 0 0
0 0 0 0 0 0 0 0 0 0 0 0 0 0 0 0 0 0 0 0 0 0 0 0 0 0 0 0 -0 -0 -0 -0 -0 -0 -0 0 0 0 0 0 0 0 0
0 0 0 0 0 0 0 0 0 0 0 0 0 0 0 0 0 0 0 0 0 0 0 0 0 0 0 0 -0 -0 -0 -0 -0 -0 -0 0 0 0 0 0 0 0 0
0 0 0 0 0 0 0 0 0 0 0 0 0 0 0 0 0 0 0 0 0 0 0 0 0 0 0 0 0 0 0 -0 -0 -0 -0 -0 -0 0 0 0 0 0 0
0 0 0 0 0 0 0 0 0 0 0 0 0 0 0 0 0 0 0 0 0 0 0 0 0 0 0 0 0 0 0 0 -0 -0 -0 -0 -0 -0 0 0 0 0 0
0 0 0 0 0 0 0 0 0 0 0 0 0 0 0 0 0 0 0 0 0 0 0 0 0 0 0 0 0 0 0 0 0 0 0 0 0 0 0 0 0 0 0
0 0 0 0 0 0 0 0 0 0 0 0 0 0 0 0 0 0 0 0 0 0 0 0 0 0 0 0 0 0 0 0 0 0 0 0 0 0 0 0 0 0 0
0 0 0 0 0 0 0 0 0 0 0 0 0 0 0 0 0 0 0 0 0 0 0 0 0 0 0 0 0 0 0 0 0 0 0 0 0 0 0 0 0 0 0
0 0 0 0 0 0 0 0 0 0 0 0 0 0 0 0 0 0 0 0 0 0 0 0 0 0 0 0 0 0 0 0 0 0 0 0 0 0 0 0 0 0 0
0 0 0 0 0 0 0 0 0 0 0 0 0 0 0 0 0 0 0 0 0 0 0 0 0 0 0 0 0 0 0 0 0 0 0 0 0 0 0 0 0 0 0
0 0 0 0 0 0 0 0 0 0 0 0 0 0 0 0 0 0 0 0 0 0 0 0 0 0 0 0 0 0 0 0 0 0 0 0 0 0 0 0 0 0 0
0 0 0 0 0 0 0 0 0 0 0 0 0 0 0 0 0 0 0 0 0 0 0 0 0 0 0 0 0 0 0 0 0 0 0 0 0 0 0 0 0 0 0
0 0 0 0 0 0 0 0 0 0 0 0 0 0 0 0 0 0 0 0 0 0 0 0 0 0 0 0 0 0 0 0 0 0 0 0 0 0 0 0 0 0 0
0 0 0 0 0 0 0 0 0 0 0 0 0 0 0 0 0 0 0 0 0 0 0 0 0 0 0 0 0 0 0 0 0 0 0 0 0 0 0 0 0 0 0
0 0 0 0 0 0 0 0 0 0 0 0 0 0 0 0 0 0 0 0 0 0 0 0 0 0 0 0 0 0 0 0 0 0 0 0 0 0 0 0 0 0 0
0 0 0 0 0 0 0 0 0 0 0 0 0 0 0 0 0 0 0 0 0 0 0 0 0 0 0 0 0 0 0 0 0 0 0 0 0 0 0 0 0 0 0
Wind_Speed_500mb
27 25 23 21 22 24 25 27 30 31 30 26 25 27 26 26 27 27 27 28 29 30 31 32 33 33 34 35 35 39 43 51 52 49 46 46 49 51 55 61 59 58 60
30 26 26 24 24 25 27 29 30 32 31 29 27 26 27 26 27 29 30 31 32 34 35 35 36 37 36 36 38 39 42 45 50 48 45 50 51 54 54 58 65 64 66
34 29 28 26 26 26 27 29 32 35 36 36 35 33 32 30 29 32 33 33 33 36 38 39 32 30 34 38 38 40 41 42 45 53 60 57 57 53 56 56 61 68 71
38 34 34 31 29 27 29 32 34 36 37 38 38 35 34 35 36 32 30 27 23 25 28 30 27 29 34 35 35 35 35 42 46 49 50 61 61 63 59 60 59 64 70
42 39 37 34 30 28 30 32 32 36 39 40 42 42 41 40 34 37 26 19 20 16 18 27 33 31 29 35 28 41 40 39 38 46 52 54 57 64 65 67 65 63 64
47 45 41 38 33 31 33 34 34 34 39 47 48 47 44 35 40 22 19 40 40 29 29 33 39 39 35 30 56 49 50 51 50 50 47 50 53 59 67 68 73 69 67
50 47 44 40 34 32 36 37 36 37 36 40 49 49 41 37 24 22 44 54 40 43 44 43 37 44 54 62 58 56 56 55 57 59 59 57 59 65 69 74 74 76 70
55 53 49 42 37 37 40 40 39 38 37 38 40 44 34 37 15 54 36 50 40 36 36 51 64 66 67 70 68 66 64 66 65 66 67 69 68 65 66 72 78 80 79
62 59 53 46 41 41 41 40 40 37 35 36 33 24 14 13 68 56 61 32 55 42 62 66 72 73 71 72 74 75 74 70 71 70 70 71 76 74 68 68 66 73 85
67 62 57 50 45 44 43 42 40 37 35 36 36 29 29 34 21 40 48 77 68 76 83 85 81 76 79 79 78 77 76 77 75 74 77 78 78 79 83 77 71 73 76
68 65 60 55 51 46 43 42 40 38 40 38 36 36 38 38 44 48 70 65 86 93 96 86 95 90 84 83 83 84 80 80 83 86 86 85 87 87 86 85 83 78 77
72 68 64 60 54 48 44 42 41 41 42 42 40 39 40 41 50 51 75 95 100 105 98 106 92 87 87 88 86 88 87 91 98 99 99 97 94 91 93 94 92 93 88
79 74 67 63 56 49 45 44 45 44 45 45 42 41 41 44 48 54 66 87 102 116 118 100 90 93 95 87 95 96 104 110 112 111 109 108 107 103 100 95 89 84 90
78 68 65 63 59 53 50 49 47 48 47 45 45 44 43 46 49 53 59 70 100 106 108 91 105 95 96 95 101 107 117 118 119 120 115 114 110 109 107 106 100 87 83
75 70 69 65 61 57 53 50 49 49 47 46 46 45 46 48 53 56 59 60 64 77 134 107 102 101 113 115 120 121 122 124 125 125 124 118 112 106 108 108 110 113 101
82 78 73 68 63 57 55 53 50 49 47 47 47 47 49 53 57 59 61 65 65 73 103 119 120 122 122 126 129 124 122 126 127 128 125 115 104 99 99 102 98 105 108
86 81 75 68 63 58 56 55 52 50 48 46 48 51 52 56 59 63 67 69 71 71 92 158 127 127 126 128 126 114 117 125 126 120 112 100 93 92 94 96 98 96 98
84 80 74 69 65 60 58 56 54 48 47 47 50 53 56 58 63 68 69 72 74 72 78 113 142 133 134 128 120 107 114 113 113 111 98 95 92 92 93 95 98 101 100
83 82 79 72 67 63 60 55 54 48 47 49 52 54 58 62 68 69 71 73 72 69 71 90 130 130 132 126 125 105 100 106 108 99 93 89 87 85 84 87 93 99 106
83 83 79 72 69 64 59 55 51 47 48 51 52 55 59 63 66 67 68 70 72 74 78 87 106 124 113 110 108 111 116 98 104 99 100 96 90 87 89 84 89 100 103
80 79 78 74 70 64 57 52 49 47 50 52 52 55 59 62 60 59 61 68 70 80 82 87 100 101 104 101 100 102 102 111 109 93 102 107 98 82 75 83 86 91 114
79 81 81 76 68 61 53 49 48 47 50 50 53 55 58 59 57 57 59 61 66 77 90 93 100 102 116 106 107 104 101 103 110 84 86 92 74 93 108 99 88 62 80
82 85 82 74 65 56 50 44 48 51 49 47 50 54 55 55 55 64 67 65 71 74 79 89 107 115 116 114 108 112 107 111 117 102 94 116 85 104 113 99 94 77 65
84 85 80 71 61 53 45 46 54 49 44 45 47 50 52 53 58 59 69 75 83 89 91 91 96 113 112 114 107 113 118 119 123 106 84 110 96 100 101 97 87 78 65
84 84 76 67 59 46 47 56 50 44 40 42 44 45 47 56 62 53 63 83 100 101 83 80 88 91 94 100 100 103 110 97 110 97 81 85 90 98 103 103 83 70 67
80 81 73 65 51 51 57 51 43 37 39 40 42 45 50 54 52 52 67 79 94 100 90 99 99 94 108 115 82 81 96 98 101 107 86 80 80 75 84 102 83 69 53
Wind_Direction_500mb
246 257 268 277 285 293 304 312 317 316 315 312 306 302 302 303 303 301 298 291 285 287 287 284 282 282 279 275 272 268 265 259 255 259 264 263 261 263 261 257 253 253 252
249 257 267 274 277 285 299 310 314 319 320 316 313 311 314 312 308 303 297 293 288 282 278 277 275 273 272 270 267 265 265 264 256 251 258 255 259 259 261 259 256 253 254
244 253 260 265 273 285 295 304 315 322 323 321 321 323 325 322 316 310 308 300 294 292 289 284 287 289 290 285 280 276 272 270 266 262 252 250 248 256 260 260 259 255 254
244 249 254 259 267 279 289 299 315 324 324 320 320 325 326 327 327 322 322 320 309 292 289 288 293 299 302 299 297 293 284 278 279 277 268 253 253 250 251 259 259 259 256
240 242 247 254 261 271 282 295 310 318 321 320 322 327 332 334 332 328 331 354 348 340 314 297 293 294 302 303 309 318 315 307 286 275 272 267 257 254 252 250 258 259 259
236 239 244 249 255 265 277 289 301 312 321 323 326 326 330 329 332 339 345 334 322 310 303 301 307 305 302 298 310 310 309 305 301 293 287 285 271 257 250 251 251 256 259
237 241 243 247 254 265 275 283 293 305 316 319 321 319 330 333 338 338 324 324 322 307 303 310 304 304 300 306 311 308 306 305 301 296 292 287 280 275 261 246 247 248 253
238 239 242 246 253 263 271 280 290 300 312 322 326 332 332 333 318 321 324 314 309 305 303 305 302 303 305 307 305 306 306 306 306 302 296 291 289 279 273 268 251 245 247
237 238 241 245 253 262 270 278 285 296 307 311 316 322 330 308 318 320 320 315 322 301 299 299 297 299 304 307 308 309 309 306 306 305 302 300 294 287 278 269 274 260 243
237 239 241 245 251 260 268 275 283 291 296 300 303 306 304 298 305 309 307 312 312 306 305 306 306 308 310 309 308 308 309 308 306 302 301 298 294 289 286 277 269 268 259
236 237 241 244 249 257 266 273 280 287 291 293 296 300 303 302 298 291 300 308 309 309 308 307 310 311 314 313 312 310 307 307 307 305 299 295 293 290 286 281 276 268 265
235 237 240 242 247 254 262 270 276 281 284 289 293 295 296 298 303 304 303 308 308 312 308 307 307 311 314 314 311 309 309 311 307 303 300 296 290 285 283 282 278 272 264
234 236 238 241 245 251 258 267 272 278 283 287 289 291 291 297 301 302 301 304 304 308 306 307 308 312 312 312 310 309 309 308 306 302 298 294 290 285 279 276 276 273 268
240 239 240 239 242 247 254 261 268 273 276 281 286 289 294 302 301 300 299 302 306 304 301 304 306 308 310 309 305 306 304 302 301 300 297 296 292 286 281 272 267 269 269
239 236 237 240 242 244 251 260 265 269 276 281 286 290 295 299 299 301 298 294 294 297 302 303 302 302 304 302 303 304 301 298 297 295 294 292 290 284 278 274 267 261 260
236 235 236 237 240 246 253 258 264 269 272 279 285 290 295 298 298 298 295 292 288 287 287 295 295 297 302 302 302 301 299 298 296 295 292 291 283 279 276 273 270 264 257
237 235 235 237 240 245 254 260 263 265 271 280 284 289 293 295 298 296 294 290 288 287 280 294 295 299 301 301 300 298 299 301 300 296 294 286 282 280 277 273 267 262 258
237 236 234 236 239 244 249 256 262 267 273 280 285 289 295 299 298 295 294 292 291 288 276 284 299 300 299 301 299 295 298 298 295 296 290 284 283 281 278 274 269 263 250
235 234 234 234 238 243 249 254 260 264 271 279 285 292 299 298 295 298 297 294 293 285 274 275 291 298 297 298 297 293 292 293 291 290 289 283 283 282 280 278 269 260 257
234 232 233 233 237 241 247 254 258 265 275 281 287 295 298 297 299 300 298 296 296 290 283 279 280 287 286 290 292 294 294 291 290 289 289 288 287 282 279 275 268 265 260
232 230 230 232 235 240 246 250 256 265 275 283 291 297 298 300 303 303 290 294 293 290 287 282 280 280 283 286 286 289 287 291 290 286 288 291 297 294 285 278 275 269 250
229 227 227 229 234 239 245 251 260 271 278 289 296 298 300 302 306 305 299 288 286 287 286 284 284 282 282 281 283 281 283 285 286 287 287 286 284 283 290 285 277 286 263
226 224 224 227 232 237 243 253 265 273 280 288 294 299 303 307 310 313 310 296 293 290 284 286 285 282 283 284 285 283 281 279 279 282 278 280 280 284 290 287 282 282 271
223 222 222 225 228 233 243 253 265 269 278 286 295 298 307 314 317 306 304 304 303 298 293 293 287 289 286 287 283 282 282 278 277 275 270 272 279 277 291 291 286 280 269
219 218 220 222 223 228 244 253 259 267 275 288 294 304 316 317 313 305 308 306 303 305 303 297 293 286 285 285 283 283 278 273 274 274 265 266 275 276 282 290 279 273 275
220 217 218 218 218 234 240 246 253 261 276 290 301 314 315 313 309 311 308 306 303 311 317 312 303 291 288 293 288 277 276 268 270 272 269 268 272 273 277 287 278 278 251
Wind_Speed_850mb
27 25 23 21 22 24 25 27 30 31 30 26 25 27 26 26 27 27 27 28 29 30 31 32 33 33 34 35 35 39 43 51 52 49 46 46 49 51 55 61 59 58 60
30 26 26 24 24 25 27 29 30 32 31 29 27 26 27 26 27 29 30 31 32 34 35 35 36 37 36 36 38 39 42 45 50 48 45 50 51 54 54 58 65 64 66
34 29 28 26 26 26 27 29 32 35 36 36 35 33 32 30 29 32 33 33 33 36 38 39 32 30 34 38 38 40 41 42 45 53 60 57 57 53 56 56 61 68 71
38 34 34 31 29 27 29 32 34 36 37 38 38 35 34 35 36 32 30 27 23 25 28 30 27 29 34 35 35 35 35 42 46 49 50 61 61 63 59 60 59 64 70
42 39 37 34 30 28 30 32 32 36 39 40 42 42 41 40 34 37 26 19 20 16 18 27 33 31 29 35 28 41 40 39 38 46 52 54 57 64 65 67 65 63 64
47 45 41 38 33 31 33 34 34 34 39 47 48 47 44 35 40 22 19 40 40 29 29 33 39 39 35 30 56 49 50 51 50 50 47 50 53 59 67 68 73 69 67
50 47 44 40 34 32 36 37 36 37 36 40 49 49 41 37 24 22 44 54 40 43 44 43 37 44 54 62 58 56 56 55 57 59 59 57 59 65 69 74 74 76 70
55 53 49 42 37 37 40 40 39 38 37 38 40 44 34 37 15 54 36 50 40 36 36 51 64 66 67 70 68 66 64 66 65 66 67 69 68 65 66 72 78 80 79
62 59 53 46 41 41 41 40 40 37 35 36 33 24 14 13 68 56 61 32 55 42 62 66 72 73 71 72 74 75 74 70 71 70 70 71 76 74 68 68 66 73 85
67 62 57 50 45 44 43 42 40 37 35 36 36 29 29 34 21 40 48 77 68 76 83 85 81 76 79 79 78 77 76 77 75 74 77 78 78 79 83 77 71 73 76
68 65 60 55 51 46 43 42 40 38 40 38 36 36 38 38 44 48 70 65 86 93 96 86 95 90 84 83 83 84 80 80 83 86 86 85 87 87 86 85 83 78 77
72 68 64 60 54 48 44 42 41 41 42 42 40 39 40 41 50 51 75 95 100 105 98 106 92 87 87 88 86 88 87 91 98 99 99 97 94 91 93 94 92 93 88
79 74 67 63 56 49 45 44 45 44 45 45 42 41 41 44 48 54 66 87 102 116 118 100 90 93 95 87 95 96 104 110 112 111 109 108 107 103 100 95 89 84 90
78 68 65 63 59 53 50 49 47 48 47 45 45 44 43 46 49 53 59 70 100 106 108 91 105 95 96 95 101 107 117 118 119 120 115 114 110 109 107 106 100 87 83
75 70 69 65 61 57 53 50 49 49 47 46 46 45 46 48 53 56 59 60 64 77 134 107 102 101 113 115 120 121 122 124 125 125 124 118 112 106 108 108 110 113 101
82 78 73 68 63 57 55 53 50 49 47 47 47 47 49 53 57 59 61 65 65 73 103 119 120 122 122 126 129 124 122 126 127 128 125 115 104 99 99 102 98 105 108
86 81 75 68 63 58 56 55 52 50 48 46 48 51 52 56 59 63 67 69 71 71 92 158 127 127 126 128 126 114 117 125 126 120 112 100 93 92 94 96 98 96 98
84 80 74 69 65 60 58 56 54 48 47 47 50 53 56 58 63 68 69 72 74 72 78 113 142 133 134 128 120 107 114 113 113 111 98 95 92 92 93 95 98 101 100
83 82 79 72 67 63 60 55 54 48 47 49 52 54 58 62 68 69 71 73 72 69 71 90 130 130 132 126 125 105 100 106 108 99 93 89 87 85 84 87 93 99 106
83 83 79 72 69 64 59 55 51 47 48 51 52 55 59 63 66 67 68 70 72 74 78 87 106 124 113 110 108 111 116 98 104 99 100 96 90 87 89 84 89 100 103
80 79 78 74 70 64 57 52 49 47 50 52 52 55 59 62 60 59 61 68 70 80 82 87 100 101 104 101 100 102 102 111 109 93 102 107 98 82 75 83 86 91 114
79 81 81 76 68 61 53 49 48 47 50 50 53 55 58 59 57 57 59 61 66 77 90 93 100 102 116 106 107 104 101 103 110 84 86 92 74 93 108 99 88 62 80
82 85 82 74 65 56 50 44 48 51 49 47 50 54 55 55 55 64 67 65 71 74 79 89 107 115 116 114 108 112 107 111 117 102 94 116 85 104 113 99 94 77 65
84 85 80 71 61 53 45 46 54 49 44 45 47 50 52 53 58 59 69 75 83 89 91 91 96 113 112 114 107 113 118 119 123 106 84 110 96 100 101 97 87 78 65
84 84 76 67 59 46 47 56 50 44 40 42 44 45 47 56 62 53 63 83 100 101 83 80 88 91 94 100 100 103 110 97 110 97 81 85 90 98 103 103 83 70 67
80 81 73 65 51 51 57 51 43 37 39 40 42 45 50 54 52 52 67 79 94 100 90 99 99 94 108 115 82 81 96 98 101 107 86 80 80 75 84 102 83 69 53
Wind_Direction_850mb
246 257 268 277 285 293 304 312 317 316 315 312 306 302 302 303 303 301 298 291 285 287 287 284 282 282 279 275 272 268 265 259 255 259 264 263 261 263 261 257 253 253 252
249 257 267 274 277 285 299 310 314 319 320 316 313 311 314 312 308 303 297 293 288 282 278 277 275 273 272 270 267 265 265 264 256 251 258 255 259 259 261 259 256 253 254
244 253 260 265 273 285 295 304 315 322 323 321 321 323 325 322 316 310 308 300 294 292 289 284 287 289 290 285 280 276 272 270 266 262 252 250 248 256 260 260 259 255 254
244 249 254 259 267 279 289 299 315 324 324 320 320 325 326 327 327 322 322 320 309 292 289 288 293 299 302 299 297 293 284 278 279 277 268 253 253 250 251 259 259 259 256
240 242 247 254 261 271 282 295 310 318 321 320 322 327 332 334 332 328 331 354 348 340 314 297 293 294 302 303 309 318 315 307 286 275 272 267 257 254 252 250 258 259 259
236 239 244 249 255 265 277 289 301 312 321 323 326 326 330 329 332 339 345 334 322 310 303 301 307 305 302 298 310 310 309 305 301 293 287 285 271 257 250 251 251 256 259
237 241 243 247 254 265 275 283 293 305 316 319 321 319 330 333 338 338 324 324 322 307 303 310 304 304 300 306 311 308 306 305 301 296 292 287 280 275 261 246 247 248 253
238 239 242 246 253 263 271 280 290 300 312 322 326 332 332 333 318 321 324 314 309 305 303 305 302 303 305 307 305 306 306 306 306 302 296 291 289 279 273 268 251 245 247
237 238 241 245 253 262 270 278 285 296 307 311 316 322 330 308 318 320 320 315 322 301 299 299 297 299 304 307 308 309 309 306 306 305 302 300 294 287 278 269 274 260 243
237 239 241 245 251 260 268 275 283 291 296 300 303 306 304 298 305 309 307 312 312 306 305 306 306 308 310 309 308 308 309 308 306 302 301 298 294 289 286 277 269 268 259
236 237 241 244 249 257 266 273 280 287 291 293 296 300 303 302 298 291 300 308 309 309 308 307 310 311 314 313 312 310 307 307 307 305 299 295 293 290 286 281 276 268 265
235 237 240 242 247 254 262 270 276 281 284 289 293 295 296 298 303 304 303 308 308 312 308 307 307 311 314 314 311 309 309 311 307 303 300 296 290 285 283 282 278 272 264
234 236 238 241 245 251 258 267 272 278 283 287 289 291 291 297 301 302 301 304 304 308 306 307 308 312 312 312 310 309 309 308 306 302 298 294 290 285 279 276 276 273 268
240 239 240 239 242 247 254 261 268 273 276 281 286 289 294 302 301 300 299 302 306 304 301 304 306 308 310 309 305 306 304 302 301 300 297 296 292 286 281 272 267 269 269
239 236 237 240 242 244 251 260 265 269 276 281 286 290 295 299 299 301 298 294 294 297 302 303 302 302 304 302 303 304 301 298 297 295 294 292 290 284 278 274 267 261 260
236 235 236 237 240 246 253 258 264 269 272 279 285 290 295 298 298 298 295 292 288 287 287 295 295 297 302 302 302 301 299 298 296 295 292 291 283 279 276 273 270 264 257
237 235 235 237 240 245 254 260 263 265 271 280 284 289 293 295 298 296 294 290 288 287 280 294 295 299 301 301 300 298 299 301 300 296 294 286 282 280 277 273 267 262 258
237 236 234 236 239 244 249 256 262 267 273 280 285 289 295 299 298 295 294 292 291 288 276 284 299 300 299 301 299 295 298 298 295 296 290 284 283 281 278 274 269 263 250
235 234 234 234 238 243 249 254 260 264 271 279 285 292 299 298 295 298 297 294 293 285 274 275 291 298 297 298 297 293 292 293 291 290 289 283 283 282 280 278 269 260 257
234 232 233 233 237 241 247 254 258 265 275 281 287 295 298 297 299 300 298 296 296 290 283 279 280 287 286 290 292 294 294 291 290 289 289 288 287 282 279 275 268 265 260
232 230 230 232 235 240 246 250 256 265 275 283 291 297 298 300 303 303 290 294 293 290 287 282 280 280 283 286 286 289 287 291 290 286 288 291 297 294 285 278 275 269 250
229 227 227 229 234 239 245 251 260 271 278 289 296 298 300 302 306 305 299 288 286 287 286 284 284 282 282 281 283 281 283 285 286 287 287 286 284 283 290 285 277 286 263
226 224 224 227 232 237 243 253 265 273 280 288 294 299 303 307 310 313 310 296 293 290 284 286 285 282 283 284 285 283 281 279 279 282 278 280 280 284 290 287 282 282 271
223 222 222 225 228 233 243 253 265 269 278 286 295 298 307 314 317 306 304 304 303 298 293 293 287 289 286 287 283 282 282 278 277 275 270 272 279 277 291 291 286 280 269
219 218 220 222 223 228 244 253 259 267 275 288 294 304 316 317 313 305 308 306 303 305 303 297 293 286 285 285 283 283 278 273 274 274 265 266 275 276 282 290 279 273 275
220 217 218 218 218 234 240 246 253 261 276 290 301 314 315 313 309 311 308 306 303 311 317 312 303 291 288 293 288 277 276 268 270 272 269 268 272 273 277 287 278 278 251